Regional Weather Roundup
Issued by NWS

Home | Current Version | Previous Version | Text Only | Print | Product List | Glossary Off
Versions: 1 2 3 4 5 6 7 8 9 10 11 12 13 14 15 16 17 18 19 20 21 22 23 24 25 26 27

000
ASUS45 KBOU 230207
RWRCO

WEATHER ROUNDUP FOR COLORADO
NATIONAL WEATHER SERVICE DENVER/BOULDER CO
700 PM MST WED FEB 22 2017

NOTE: "FAIR" INDICATES FEW OR NO CLOUDS BELOW 12000 FEET WITH NO
SIGNIFICANT WEATHER AND/OR OBSTRUCTIONS TO VISIBILITY.

COZ001>005-013-030-031-230300-
...NORTHWEST COLORADO...

CITY           SKY/WX    TMP DP  RH WIND       PRES   REMARKS
CRAIG          CLOUDY    34  26  72 CALM      29.73F
HAYDEN         CLOUDY    30  25  80 CALM      29.73F
MEEKER         FAIR      35  28  75 N8        29.68F WCI  29
MOUNT WERNER   NOT AVBL
STEAMBOAT SPGS CLOUDY    32  29  88 CALM      29.73F
WALDEN         NOT AVBL
$$

COZ006>008-011-230300-
...WEST CENTRAL VALLEYS...

CITY           SKY/WX    TMP DP  RH WIND       PRES   REMARKS
GRAND JUNCTION FAIR      51  28  41 E6        29.61F
MONTROSE       FAIR      53  22  29 S7        29.71F
EAGLE          MOCLDY    46  25  42 CALM      29.70F
RIFLE          CLOUDY    50  28  42 E7        29.64F
DELTA          FAIR      55  17  23 SW5       29.67F
NUCLA          FAIR      54  10  17 SW24G33   29.73F
$$

COZ017>023-064>068-230300-
...SOUTHWEST COLORADO...

CITY           SKY/WX    TMP DP  RH WIND       PRES   REMARKS
DURANGO        MOCLDY    50  22  33 SW15G22   29.82F
CORTEZ         FAIR      50  27  40 SW9       29.77F
PAGOSA SPRINGS CLOUDY    46  19  34 SW10G17   29.87S
TELLURIDE      FAIR      41  19  40 S14G35    29.83F
WOLF CREEK PAS CLOUDY    25  21  86 S24G31    29.96F WCI   9
$$

COZ009-010-012-014-032>034-037-058>063-230300-
...CENTRAL COLORADO...

CITY           SKY/WX    TMP DP  RH WIND       PRES   REMARKS
ASPEN          MOCLDY    41  21  44 SE8       29.72F
BUENA VISTA    FAIR      43  11  27 S8        29.78S
COPPER MTN     MOCLDY    30  10  43 S16G23    29.87F WCI  19
BERTHOUD PASS  FAIR      18   9  68 SE26G32   29.86F WCI  -1
COTTONWOOD PAS FAIR      41   3  20 CALM      29.83F
GUNNISON       FAIR      39  22  50 CALM      29.78F
KREMMLING      MOCLDY    41  32  70 CALM      29.73F
LEADVILLE      FAIR      31  10  41 S9        29.80F WCI  23
MONARCH PASS   CLOUDY    27  12  54 SW22      29.99F WCI  12
SALIDA         FAIR      46  16  29 SW5       29.85F
SUNLIGHT       NOT AVBL
WILKERSON PASS FAIR      28   9  43 SW7       29.90F WCI  21
$$

COZ069>075-230300-
...SAN LUIS VALLEY/SANGRE DE CRISTO MOUNTAINS...

CITY           SKY/WX    TMP DP  RH WIND       PRES   REMARKS
ALAMOSA        FAIR      39  30  70 S5        29.85F
LA VETA PASS   CLOUDY    34  25  69 N23G38    29.91R WCI  22
SAGUACHE       FAIR      43  18  36 W3        29.82F
$$

COZ035-036-038>040-230300-
...NORTHERN COLORADO FRONT RANGE...

CITY           SKY/WX    TMP DP  RH WIND       PRES   REMARKS
DENVER INTL AP MOCLDY    44  18  35 N14       29.76R
DMNS CITY PARK   N/A     46  19  33 N8G18     29.77S
AURORA         MOCLDY    42  19  38 N10       29.77R
FRONT RANGE AP MOCLDY    45  19  36 N12       29.76R
ERIE MUNI ARPT MOCLDY    47  20  35 NE6       29.78R
BOULDER MUN AP MOCLDY    46  23  39 NE6       29.79R
CENTENNIAL     FAIR      46  18  32 N9        29.77R
BROOMFIELD     MOCLDY    46  21  36 N12       29.79R
FORT COLLINS   FAIR      41  26  55 N18       29.79R
LONGMONT       CLOUDY    49  23  35 N8        29.81R
$$

COZ041-046-047-076>085-087-088-230300-
...PIKES PEAK/PALMER DIVIDE AND SOUTHERN FOOTHILLS...

CITY           SKY/WX    TMP DP  RH WIND       PRES   REMARKS
COLO. SPRINGS  FAIR      52  14  22 SW16      29.72R
A. F. ACADEMY  FAIR      52   7  16 N13       29.72R
SCHRIEVER AFB  FAIR      46  11  24 SW12G17   29.73R
ELLICOTT       FAIR     N/A N/A N/A SW14      29.71S
FALCON         FAIR      46  10  23 SW8       29.75S
FORT CARSON    FAIR      55  16  21 SW15      29.70R
LIMON          FAIR      47  20  34 E16       29.72S
MONUMENT HILL  FAIR      36  16  44 W7        29.77R
TRINIDAD       FAIR      50  11  20 SW14      29.78F
$$

COZ042>045-048>051-090-091-230300-
...NORTHEAST COLORADO...

CITY           SKY/WX    TMP DP  RH WIND       PRES   REMARKS
GREELEY ARPT   FAIR      44  20  38 N12       29.79R
AKRON          FAIR      41  16  36 NE13      29.76R
BURLINGTON     FAIR      44  22  41 E12       29.73F
WRAY           NOT AVBL
STERLING       FAIR      41  18  38 N7        29.76S
HOLYOKE        FAIR      43  19  39 N8        29.78R
FORT MORGAN    FAIR      42  15  33 N16       29.76S
$$

COZ086-089-092>099-230300-
...SOUTHEAST COLORADO...

CITY           SKY/WX    TMP DP  RH WIND       PRES   REMARKS
PUEBLO         FAIR      59  21  23 SW17G25   29.68S
LA JUNTA       FAIR      60  15  17 SW17      29.67S
LAMAR          FAIR      54  23  30 SE9       29.67S
SPRINGFIELD      N/A     58  21  24 SW6       29.74S
$$




USA.gov is the U.S. government's official web portal to all federal, state and local government web resources and services.